User: anonymous   Login
Location: Unspecified
(0.0000°N, 0.0000°E)
Time: 18:55:12
(UTC+00:00)
Language:

NODES 2 - Orbit

View from above orbital plane
View from above orbital plane
View from above satellite
View from above satellite

Ground track
Ground track

The orbit data is extracted from the following two-line orbital elements,

1 41478U 98067HY  17084.47852793 +.00035867 +00000-0 +26700-3 0  9996
2 41478 051.6333 075.6679 0003674 087.5131 272.6288 15.72427811048850
Epoch (UTC): 25 March 2017 11:29:04
Eccentricity: 0.0003674
inclination: 51.6333°
perigee height: 349 km
apogee height: 354 km
right ascension of ascending node: 75.6679°
argument of perigee: 87.5131°
revolutions per day: 15.72427811
mean anomaly at epoch: 272.6288°
orbit number at epoch: 4885

The dashed part of the orbit path shows where the satellite is in the earth's shadow,  

DLR